DW3320 Weather Reports


time (UTC)temp
F
wind
direction
speed
knots
gust
knots
rain 1hr
in
rain 24hr
in
rain mn
in
humidity
%
barometer
mb
20260507130048 56 348 0.0 2.6 0.00 0.00 0.00 90 1011.4
20260507124547 57 0 0.0 7.0 0.00 0.00 0.00 90 1011.5
20260507123050 57 0 0.0 6.1 0.00 0.00 0.00 90 1011.4
20260507121543 57 330 3.5 7.8 0.00 0.00 0.00 90 1011.8
20260507120042 57 37 4.3 9.6 0.00 0.00 0.00 89 1011.4
20260507114555 58 23 3.5 8.7 0.00 0.00 0.00 87 1011.5
20260507113048 58 15 3.5 7.0 0.00 0.00 0.00 87 1011.4
20260507111550 58 13 5.2 9.6 0.00 0.00 0.00 85 1011.4
20260507110047 58 355 2.6 7.0 0.00 0.00 0.00 86 1011.0
20260507104550 60 4 0.9 8.7 0.00 0.00 0.00 90 1010.6
20260507103049 60 352 4.3 10.4 0.00 0.00 0.00 90 1010.7
20260507101549 61 48 7.0 10.4 0.00 0.00 0.00 90 1010.6
20260507100050 61 32 7.8 12.2 0.00 0.00 0.00 90 1010.3
20260507094548 63 18 7.8 10.4 0.00 0.00 0.00 89 1010.3
20260507093047 65 339 3.5 7.0 0.00 0.00 0.00 88 1010.0
20260507091543 66 1 5.2 13.0 0.00 0.00 0.00 87 1009.8
20260507090041 67 132 0.9 1.7 0.00 0.00 0.00 87 1009.4
20260507084547 68 352 0.9 1.7 0.00 0.00 0.00 86 1009.6
20260507083050 68 0 0.0 2.6 0.00 0.00 0.00 86 1009.4
20260507081546 68 0 0.9 5.2 0.00 0.00 0.00 86 1009.4
20260507080045 68 285 1.7 7.8 0.00 0.00 0.00 86 1009.2
20260507074554 68 276 2.6 9.6 0.00 0.00 0.00 86 1009.6
20260507073043 68 240 2.6 9.6 0.00 0.00 0.00 86 1009.5
20260507071552 68 246 5.2 11.3 0.00 0.00 0.00 86 1009.4
20260507070044 68 240 3.5 10.4 0.00 0.00 0.00 86 1008.9
20260507064551 69 214 6.1 10.4 0.00 0.00 0.00 86 1008.5
20260507063053 69 216 5.2 11.3 0.00 0.00 0.00 84 1008.3
20260507061546 70 220 6.1 11.3 0.00 0.00 0.00 83 1009.1
20260507060057 71 219 5.2 9.6 0.00 0.00 0.00 80 1009.5
20260507054549 71 215 7.0 10.4 0.00 0.00 0.00 79 1009.8
20260507053053 71 233 5.2 11.3 0.00 0.00 0.00 78 1010.0
20260507051551 71 213 4.3 10.4 0.00 0.00 0.00 77 1010.1
20260507050046 72 203 4.3 8.7 0.00 0.00 0.00 76 1010.2
20260507044557 72 229 3.5 8.7 0.00 0.00 0.00 76 1010.3
20260507043046 72 212 3.5 8.7 0.00 0.00 0.00 76 1010.0
20260507041551 72 212 4.3 8.7 0.00 0.00 0.00 76 1010.0
20260507040048 71 211 4.3 10.4 0.00 0.00 0.00 77 1010.2
20260507034550 71 176 3.5 7.0 0.00 0.00 0.00 77 1010.4
20260507033044 71 214 5.2 10.4 0.00 0.00 0.00 77 1010.1
20260507031542 71 198 4.3 8.7 0.00 0.00 0.00 77 1010.0
20260507030056 70 211 5.2 7.8 0.00 0.00 0.00 77 1010.0
20260507024554 71 180 4.3 8.7 0.00 0.00 0.00 77 1010.3
20260507023048 71 228 5.2 7.8 0.00 0.00 0.00 77 1010.2
20260507021546 71 213 3.5 7.0 0.00 0.00 0.00 76 1010.4
20260507020049 71 198 4.3 7.0 0.00 0.00 0.00 76 1010.5
20260507014543 71 208 4.3 6.1 0.00 0.00 0.00 75 1010.7
20260507013055 71 218 2.6 5.2 0.00 0.00 0.00 75 1010.7
20260507011544 72 214 1.7 5.2 0.00 0.00 0.00 74 1010.5
20260507010045 72 219 5.2 9.6 0.00 0.00 0.00 72 1010.7
20260507004556 72 206 4.3 9.6 0.00 0.00 0.00 72 1010.4
20260507003045 73 243 5.2 10.4 0.00 0.00 0.00 71 1010.4
20260507001544 73 206 5.2 8.7 0.00 0.00 0.00 71 1010.3
20260507000048 73 200 4.3 9.6 0.00 0.00 0.00 70 1010.1
20260506234542 73 208 3.5 7.0 0.00 0.00 0.00 70 1010.2
20260506233049 74 203 4.3 7.0 0.00 0.00 0.00 69 1010.0
20260506231547 73 211 2.6 7.0 0.00 0.00 0.00 70 1009.8
20260506230046 74 191 2.6 7.0 0.00 0.00 0.00 69 1009.9
20260506224558 74 221 4.3 7.8 0.00 0.00 0.00 68 1010.0
20260506223042 74 214 3.5 8.7 0.00 0.00 0.00 67 1009.9
20260506221553 75 245 5.2 8.7 0.00 0.00 0.00 66 1010.1
20260506220049 75 236 3.5 11.3 0.00 0.00 0.00 67 1010.0
20260506214605 75 244 5.2 11.3 0.00 0.00 0.00 66 1009.9
20260506213045 75 212 5.2 15.6 0.00 0.00 0.00 66 1009.8
20260506211542 75 222 5.2 14.8 0.00 0.00 0.00 66 1009.8
20260506210042 75 220 7.8 15.6 0.00 0.00 0.00 66 1009.7
20260506204556 74 236 6.1 11.3 0.00 0.00 0.00 67 1009.5
20260506203052 74 198 9.6 13.9 0.00 0.00 0.00 68 1009.1
20260506201550 74 236 8.7 14.8 0.00 0.00 0.00 68 1009.3
20260506200046 73 217 8.7 16.5 0.00 0.00 0.00 68 1009.5
20260506194557 73 199 10.4 14.8 0.00 0.00 0.00 68 1009.5
20260506193042 73 199 7.0 12.2 0.00 0.00 0.00 69 1010.4
20260506191551 72 217 6.1 12.2 0.00 0.00 0.00 71 1010.9
20260506190048 71 230 5.2 9.6 0.00 0.00 0.00 73 1011.1
20260506184548 72 213 7.8 13.0 0.00 0.00 0.00 71 1011.4
20260506183047 72 192 6.1 12.2 0.00 0.00 0.00 70 1011.5
20260506181548 72 207 7.8 13.0 0.00 0.00 0.00 71 1011.6
20260506180051 71 205 7.0 13.9 0.00 0.00 0.00 72 1011.5
20260506174544 71 213 11.3 17.4 0.00 0.00 0.00 73 1011.5
20260506173049 70 176 7.0 13.9 0.00 0.00 0.00 76 1011.6
20260506171555 69 191 8.7 13.0 0.00 0.00 0.00 77 1011.7
20260506170047 68 180 8.7 13.9 0.00 0.00 0.00 78 1012.2
20260506164543 67 193 7.8 12.2 0.00 0.00 0.00 80 1012.4
20260506163049 67 200 7.8 11.3 0.00 0.00 0.00 81 1012.6
20260506161545 66 213 5.2 10.4 0.00 0.00 0.00 82 1012.8
20260506160050 66 207 7.0 9.6 0.00 0.00 0.00 81 1013.3
20260506154607 68 216 7.0 12.2 0.00 0.00 0.00 78 1013.5
20260506153047 68 211 9.6 16.5 0.00 0.00 0.00 77 1013.6
20260506151543 69 244 9.6 13.9 0.00 0.00 0.00 74 1013.6
20260506150053 68 214 10.4 17.4 0.00 0.00 0.00 76 1013.5
20260506144559 68 200 10.4 14.8 0.00 0.00 0.00 77 1013.4
20260506143048 67 188 7.8 12.2 0.00 0.00 0.00 79 1013.2
20260506141542 67 198 7.8 15.6 0.00 0.00 0.00 76 1013.5
20260506140059 68 199 7.8 17.4 0.00 0.00 0.00 75 1013.5
20260506134549 68 206 11.3 16.5 0.00 0.00 0.00 74 1013.3
20260506133052 68 224 9.6 21.7 0.00 0.00 0.00 75 1013.3
20260506131549 68 250 8.7 19.1 0.00 0.00 0.00 74 1013.3